This is the latest recevied weather packets stored in our database for station/object W0AKO. If no packets are shown the sender has not sent any weather packets the latest 10 day(s).
| Time | Temp. | Humidity | Pressure | Rain* | Wind** | Luminosity | Snow |
|---|---|---|---|---|---|---|---|
| 1777519103 | 21.67° C | 10% | 1015.2 hPa | 0 mm | - | 0 W/m² | - |
| 1777518799 | 22.22° C | 10% | 1015.2 hPa | 0 mm | - | 0 W/m² | - |
| 1777518495 | 22.22° C | 10% | 1015.4 hPa | 0 mm | - | 0 W/m² | - |
| 1777518191 | 22.22° C | 10% | 1015.2 hPa | 0 mm | - | 0 W/m² | - |
| 1777517888 | 22.22° C | 10% | 1015.1 hPa | 0 mm | - | 0 W/m² | - |
| 1777517583 | 22.78° C | 10% | 1015.1 hPa | 0 mm | - | 0 W/m² | - |
| 1777517281 | 22.78° C | 10% | 1014.7 hPa | 0 mm | - | 0 W/m² | - |
| 1777516980 | 22.78° C | 10% | 1015 hPa | 0 mm | - | 0 W/m² | - |
| 1777516677 | 22.78° C | 10% | 1014.7 hPa | 0 mm | - | 0 W/m² | - |
| 1777516373 | 23.33° C | 10% | 1015 hPa | 0 mm | - | 0 W/m² | - |
| 1777516069 | 23.33° C | 10% | 1015 hPa | 0 mm | - | 0 W/m² | - |
| 1777515766 | 23.33° C | 10% | 1014.6 hPa | 0 mm | - | 1 W/m² | - |
| 1777515462 | 23.33° C | 10% | 1014.7 hPa | 0 mm | - | 3 W/m² | - |
| 1777515160 | 23.33° C | 10% | 1014.7 hPa | 0 mm | - | 6 W/m² | - |
| 1777514856 | 23.89° C | 10% | 1014.7 hPa | 0 mm | - | 9 W/m² | - |
| 1777514552 | 23.89° C | 10% | 1014.6 hPa | 0 mm | - | 12 W/m² | - |
| 1777514251 | 23.89° C | 10% | 1014.7 hPa | 0 mm | - | 17 W/m² | - |
| 1777513946 | 24.44° C | 10% | 1014.7 hPa | 0 mm | - | 22 W/m² | - |
| 1777513644 | 24.44° C | 10% | 1014.7 hPa | 0 mm | - | 24 W/m² | - |
| 1777513341 | 24.44° C | 10% | 1014.6 hPa | 0 mm | - | 31 W/m² | - |
| 1777513036 | 24.44° C | 10% | 1014.4 hPa | 0 mm | - | 35 W/m² | - |
| 1777512733 | 25° C | 10% | 1014.5 hPa | 0 mm | - | 38 W/m² | - |
| 1777512430 | 25° C | 10% | 1014.4 hPa | 0 mm | - | 29 W/m² | - |
| 1777512126 | 25° C | 10% | 1014.3 hPa | 0 mm | - | 53 W/m² | - |
| 1777511824 | 25° C | 10% | 1014.5 hPa | 0 mm | - | 64 W/m² | - |
* Rain latest hour (hover to see other rain measurements)
** Current wind speed in m/s (hover to see current wind gust speed)